Regional Weather Roundup
Issued by NWS Upton, NY

Current Version | Previous Version | Graphics & Text | Print | Product List | Glossary Off
Versions: 1 2 3 4 5 6 7 8 9 10 11 12 13 14 15 16 17 18 19 20 21 22 23 24 25 26 27 28 29 30 31 32 33 34 35 36 37 38 39 40 41 42 43 44 45 46 47 48 49 50

000
ASUS41 KOKX 201005
RWROKX

REGIONAL WEATHER ROUNDUP
NATIONAL WEATHER SERVICE NEW YORK NY
500 AM EST SAT DEC 20 2014

NOTE: "FAIR" INDICATES FEW OR NO CLOUDS BELOW 12,000 FEET WITH NO
SIGNIFICANT WEATHER AND/OR OBSTRUCTIONS TO VISIBILITY.

NYZ071-072-176-178-NJZ106-104-201100-
NEW YORK CITY METRO AREA


CITY           SKY/WX    TMP DP  RH WIND       PRES   REMARKS
CENTRAL PARK   CLOUDY    31  19  61 VRB7      30.25R WCI  24
LAGUARDIA APRT CLOUDY    31  21  66 N9        30.23R WCI  23
KENNEDY INTL   CLOUDY    32  20  61 N8        30.25R WCI  25
NEWARK/LIBERTY CLOUDY    31  21  66 N3        30.24R
BRNX BOT. GARD   N/A    N/A N/A N/A NE7       30.25F
TETERBORO      CLOUDY    32  20  61 N6        30.24R WCI  26
$$

NYZ177-179-078>081-201100-
LONG ISLAND NEW YORK

CITY           SKY/WX    TMP DP  RH WIND       PRES   REMARKS
FARMINGDALE    CLOUDY    32  21  64 N5        30.23R WCI  27
ISLIP          CLOUDY    31  21  66 NW8       30.21R WCI  23
SHIRLEY        CLOUDY    32  22  66 N7        30.23R WCI  26
WESTHAMPTON    CLOUDY    31  21  66 N6        30.23R WCI  25
MONTAUK POINT    N/A     32  23  69 N7        30.21R WCI  26
$$

NYZ052-065-067-201100-
HUDSON VALLEY

CITY           SKY/WX    TMP DP  RH WIND       PRES   REMARKS
WHITE PLAINS   CLOUDY    28  19  69 N6        30.21R WCI  22
NEWBURGH       CLOUDY    27  21  80 VRB6      30.23R WCI  20
MONTGOMERY     CLOUDY    28  21  75 NE6       30.22R WCI  22
POUGHKEEPSIE   CLOUDY    29  19  66 N9        30.25R WCI  20
ALBANY         CLOUDY    25  16  68 NE7       30.26R WCI  17
$$

NJZ001-105-106-008-010-013-015-019>022-104-201100-
NEW JERSEY

CITY           SKY/WX    TMP DP  RH WIND       PRES   REMARKS
NEWARK/LIBERTY CLOUDY    31  21  66 N3        30.24R
TETERBORO      CLOUDY    32  20  61 N6        30.24R WCI  26
CALDWELL       CLOUDY    31  21  66 CALM      30.24R
MORRISTOWN     CLOUDY    32  21  64 NW6       30.24R WCI  26
SOMERVILLE     CLOUDY    31  20  63 NW5       30.23R WCI  26
SUSSEX         CLOUDY    29  20  69 N3        30.22R
ANDOVER          N/A     28  20  71 NW3       30.22R
TRENTON        CLOUDY    31  21  66 N5        30.24R WCI  26
MILLVILLE      CLOUDY    29  25  85 W6        30.24R WCI  23
ATLANTIC CITY  CLOUDY    28  23  81 CALM      30.24R
WRIGHTSTOWN    CLOUDY    31  22  68 N5        30.22R WCI  26
TOMS RIVER     CLOUDY    30  21  69 NW7       30.24R WCI  23
BELMAR         CLOUDY    30  18  59 NW8       30.23R WCI  23
$$

PAZ047>061-062-071-201100-
EASTERN PENNSYLVANIA

CITY           SKY/WX    TMP DP  RH WIND       PRES   REMARKS
PHILADELPHIA   CLOUDY    34  22  61 N8        30.26R WCI  27
ALLENTOWN      CLOUDY    31  20  63 N5        30.24R WCI  26
SCRANTON       CLOUDY    29  20  69 N5        30.20R WCI  24
$$

CTZ002-004>006-009-010-012-RIZ004-006-007-MAZ004-011-015-201100-
SOUTHERN NEW ENGLAND
 IN CT

CITY           SKY/WX    TMP DP  RH WIND       PRES   REMARKS
BRADLEY INTL   PTCLDY    25  17  72 N7        30.21R WCI  17
HARTFORD       PTCLDY    27  18  69 N7        30.23R WCI  19
DANBURY        CLOUDY    28  18  66 N5        30.22R WCI  23
WTRBRY/OXFORD  CLOUDY    27  16  63 N7        30.20R WCI  19
BRIDGEPORT     CLOUDY    31  21  66 N3        30.23R
MERIDEN        CLEAR     27  19  72 CALM      30.23R
NEW HAVEN      CLEAR     29  19  66 N5        30.22R WCI  24
CHESTER        FAIR      27  21  80 N5        30.20R WCI  21
GROTON         CLEAR     25  20  81 N5        30.20R WCI  19
WILLIMANTIC    MOCLDY    24  19  81 CALM      30.20R

 IN RI

CITY           SKY/WX    TMP DP  RH WIND       PRES   REMARKS
PROVIDENCE     CLOUDY    29  21  72 N6        30.20R WCI  23
BLOCK ISLAND   CLOUDY    30  21  69 N6        30.18R WCI  24
WESTERLY       CLOUDY    27  21  78 N5        30.20R WCI  22

 IN MA

CITY           SKY/WX    TMP DP  RH WIND       PRES   REMARKS
BOSTON         PTCLDY    28  20  71 N9        30.21R WCI  19
WORCESTER      CLEAR     24  18  77 N6        30.16R WCI  17
WESTFIELD      CLEAR     21  16  81 N6        30.21R WCI  13
PROVINCETOWN   CLOUDY    37  28  70 N10       30.17S WCI  30
NANTUCKET      CLOUDY    36  30  79 NW10      30.16R WCI  28
$$

ANZ330-335-338-340-345-350-353-355-201100-
COASTAL MARINE OBSERVATIONS


STATION/POSITION TIME  SKY/WX   TEMP    WIND        PRES    VSBY  WAVE
                                AIR SEA DIR/SP/G                  HT/PER
                 (UTC)          (F)     (DEG/KT/KT) (MB)    (MI)  (FT/S)
NY HARB ENTRANCE 1000            33 46  350/ 10/ 14 1023.8          1/ 3
4S FIRE IS       1000               46                N/A           1/11
20S FIRE ISLAND  0900            35 49              1022.8          2/ 4
23SW MTP         1000                                 N/A           2/ 4
HUDSON CANYON    1000            38 55  320/ 10/ 14 1021.9          3/ 5
EXECUTION ROCKS  1000            32 41   20/  8/ 14   N/A
WESTERN LI SOUND 1000            31     340/ 10/ 12   N/A           0
CENTRAL LI SOUND 0900            31 44  350/ 12/ 16   N/A           1/ 2
EASTERN LI SOUND NOT AVBL
ROBBINS REEF     1000            32     140/  2/  3 1022.7
$$


>>>>>>>>>>>>>>>>>>>>>>>>>>>> KEY <<<<<<<<<<<<<<<<<<<<<<<<<<<
>                                                          <
>     SKY/WX - SKY CONDITION/PRESENT WEATHER               <
>     TMP    - TEMPERATURE IN FAHRENHEIT                   <
>     DP     - DEWPOINT IN FAHRENHEIT                      <
>     RH     - RELATIVE HUMIDITY IN PERCENT                <
>     WIND   - DIRECTION AND SPEED IN MPH                  <
>     PRES   - MEAN SEA LEVEL PRESSURE IN INCHES OF HG     <
>     WCI    - WIND CHILL INDEX                            <
>     VSB    - VISIBILITY IN MILES                         <
>     HX     - HEAT INDEX                                  <
>     TC     - TEMPERATURE IN CELSIUS                      <
>     VRB    - VARIABLE WIND DIRECTION                     <
>                                                          <
>>>>>>>>>>>>>>>>>>>>>>>>>>>> KEY <<<<<<<<<<<<<<<<<<<<<<<<<<<




USA.gov is the U.S. government's official web portal to all federal, state and local government web resources and services.